User: anonymous   Login
Location: Unspecified
(0.0000°N, 0.0000°E)
Time: 14:14:16
(UTC+01:00)
Language:

ITAMSAT 1 - Orbit

View from above orbital plane
View from above orbital plane
View from above satellite
View from above satellite

Ground track
Ground track

The orbit data is extracted from the following two-line orbital elements,

1 22826U 93061D   15086.11593543  .00000251  00000-0  11414-3 0  9992
2 22826 098.6946 036.4208 0008932 173.8349 186.2944 14.30166407121352
Epoch (UTC): 27 March 2015 02:46:56
Eccentricity: 0.0008932
inclination: 98.6946°
perigee height: 785 km
apogee height: 797 km
right ascension of ascending node: 36.4208°
argument of perigee: 173.8349°
revolutions per day: 14.30166407
mean anomaly at epoch: 186.2944°
orbit number at epoch: 12135

The dashed part of the orbit path shows where the satellite is in the earth's shadow,  

DLR